• In Kazakhstan
  • List of Countries
  • For 7 days
  • Water Temperature
  • Satellite Maps
  • Weather Map
  • News
  • Weather Widgets
  • user-avatar
    Login

    Hourly Weather Yastrebovka

    Today, 18 July, Thursday

    Time Temperature Precipitation Wind Pressure Humidity
    00:00 +16°C° 0 mm 2 mps 740 mmHg 90%
    01:00 +15°C° 0 mm 2 mps 740 mmHg 91%
    02:00 +15°C° 0 mm 2 mps 740 mmHg 91%
    03:00 +15°C° 0 mm 2 mps 740 mmHg 92%
    04:00 +15°C° 0 mm 2 mps 740 mmHg 91%
    05:00 +16°C° 0 mm 2 mps 741 mmHg 90%
    06:00 +16°C° 0 mm 1 mps 741 mmHg 89%
    07:00 +18°C° 0 mm 2 mps 741 mmHg 84%
    08:00 +19°C° 0 mm 2 mps 741 mmHg 79%
    09:00 +21°C° 0 mm 2 mps 741 mmHg 73%
    10:00 +22°C° 0 mm 3 mps 742 mmHg 68%
    11:00 +24°C° 0 mm 3 mps 742 mmHg 63%
    12:00 +25°C° 0 mm 4 mps 742 mmHg 57%
    13:00 +25°C° 0 mm 4 mps 742 mmHg 57%
    14:00 +26°C° 0 mm 4 mps 742 mmHg 57%
    15:00 +26°C° 0 mm 4 mps 742 mmHg 57%
    16:00 +25°C° 0.1 mm 4 mps 742 mmHg 61%
    17:00 +25°C° 0.1 mm 4 mps 742 mmHg 65%
    18:00 +24°C° 0.1 mm 3 mps 742 mmHg 68%
    19:00 +21°C° 0 mm 3 mps 742 mmHg 73%
    20:00 +20°C° 0 mm 3 mps 742 mmHg 78%
    21:00 +18°C° 0 mm 2 mps 743 mmHg 83%
    22:00 +17°C° 0 mm 3 mps 743 mmHg 85%
    23:00 +17°C° 0 mm 3 mps 743 mmHg 87%

    Tomorrow, 19 July, Friday

    Time Temperature Precipitation Wind Pressure Humidity
    00:00 +16°C° 0 mm 3 mps 743 mmHg 90%
    01:00 +14°C° 0 mm 3 mps 743 mmHg 91%
    02:00 +15°C° 0 mm 2 mps 744 mmHg 92%
    03:00 +14°C° 0 mm 2 mps 744 mmHg 92%
    04:00 +14°C° 0 mm 2 mps 744 mmHg 91%
    05:00 +15°C° 0 mm 2 mps 744 mmHg 90%
    06:00 +15°C° 0 mm 2 mps 744 mmHg 89%
    07:00 +17°C° 0 mm 3 mps 744 mmHg 83%
    08:00 +18°C° 0 mm 4 mps 745 mmHg 76%
    09:00 +20°C° 0 mm 4 mps 745 mmHg 69%
    10:00 +21°C° 0 mm 5 mps 745 mmHg 66%
    11:00 +22°C° 0 mm 5 mps 745 mmHg 63%
    12:00 +23°C° 0 mm 6 mps 745 mmHg 60%
    13:00 +23°C° 0 mm 6 mps 745 mmHg 59%
    14:00 +24°C° 0 mm 6 mps 745 mmHg 58%
    15:00 +24°C° 0 mm 6 mps 745 mmHg 57%
    16:00 +25°C° 0 mm 5 mps 745 mmHg 61%
    17:00 +23°C° 0 mm 4 mps 745 mmHg 65%
    18:00 +23°C° 0 mm 4 mps 745 mmHg 68%
    19:00 +21°C° 0.1 mm 4 mps 745 mmHg 74%
    20:00 +20°C° 0.1 mm 3 mps 746 mmHg 80%
    21:00 +18°C° 0.1 mm 3 mps 746 mmHg 86%
    22:00 +18°C° 0 mm 3 mps 746 mmHg 88%
    23:00 +17°C° 0 mm 3 mps 746 mmHg 91%

    Day after tomorrow, 20 July, Saturday

    Time Temperature Precipitation Wind Pressure Humidity
    00:00 +16°C° 0 mm 3 mps 746 mmHg 94%
    01:00 +16°C° 0 mm 3 mps 746 mmHg 94%
    02:00 +16°C° 0 mm 3 mps 746 mmHg 94%
    03:00 +14°C° 0 mm 3 mps 746 mmHg 95%
    04:00 +14°C° 0 mm 3 mps 747 mmHg 93%
    05:00 +15°C° 0 mm 4 mps 747 mmHg 92%
    06:00 +15°C° 0 mm 4 mps 747 mmHg 90%
    07:00 +17°C° 0 mm 4 mps 747 mmHg 84%
    08:00 +19°C° 0 mm 5 mps 748 mmHg 77%
    09:00 +20°C° 0 mm 6 mps 748 mmHg 71%
    10:00 +21°C° 0 mm 6 mps 748 mmHg 67%
    11:00 +22°C° 0 mm 6 mps 748 mmHg 62%
    12:00 +24°C° 0 mm 6 mps 748 mmHg 58%
    13:00 +24°C° 0 mm 6 mps 748 mmHg 56%
    14:00 +24°C° 0 mm 6 mps 749 mmHg 53%
    15:00 +26°C° 0 mm 6 mps 749 mmHg 51%
    16:00 +25°C° 0 mm 5 mps 749 mmHg 56%
    17:00 +25°C° 0 mm 5 mps 749 mmHg 61%
    18:00 +25°C° 0 mm 4 mps 749 mmHg 65%
    19:00 +22°C° 0 mm 4 mps 749 mmHg 70%
    20:00 +20°C° 0 mm 3 mps 749 mmHg 75%
    21:00 +19°C° 0 mm 3 mps 749 mmHg 80%
    22:00 +18°C° 0 mm 3 mps 749 mmHg 82%
    23:00 +17°C° 0 mm 3 mps 749 mmHg 84%

    21 July, Sunday

    Time Temperature Precipitation Wind Pressure Humidity
    00:00 +17°C° 0 mm 3 mps 749 mmHg 86%
    01:00 +16°C° 0 mm 3 mps 749 mmHg 88%
    02:00 +16°C° 0 mm 3 mps 749 mmHg 90%
    03:00 +14°C° 0 mm 3 mps 749 mmHg 92%
    04:00 +16°C° 0 mm 3 mps 749 mmHg 90%
    05:00 +16°C° 0 mm 3 mps 749 mmHg 89%
    06:00 +16°C° 0 mm 3 mps 749 mmHg 88%
    07:00 +18°C° 0 mm 3 mps 749 mmHg 82%
    08:00 +20°C° 0 mm 4 mps 749 mmHg 75%
    09:00 +21°C° 0 mm 4 mps 750 mmHg 69%
    10:00 +22°C° 0 mm 4 mps 750 mmHg 66%
    11:00 +23°C° 0 mm 5 mps 750 mmHg 63%
    12:00 +25°C° 0 mm 5 mps 750 mmHg 60%
    13:00 +25°C° 0.1 mm 5 mps 749 mmHg 59%
    14:00 +26°C° 0.1 mm 5 mps 749 mmHg 59%
    15:00 +26°C° 0.1 mm 5 mps 749 mmHg 58%
    16:00 +25°C° 0.3 mm 5 mps 749 mmHg 62%
    17:00 +25°C° 0.3 mm 5 mps 749 mmHg 67%
    18:00 +23°C° 0.3 mm 4 mps 749 mmHg 71%
    19:00 +22°C° 0 mm 4 mps 749 mmHg 77%
    20:00 +20°C° 0 mm 3 mps 749 mmHg 82%
    21:00 +18°C° 0 mm 2 mps 749 mmHg 88%
    22:00 +18°C° 0 mm 2 mps 749 mmHg 89%
    23:00 +17°C° 0 mm 3 mps 749 mmHg 90%

    22 July, Monday

    Time Temperature Precipitation Wind Pressure Humidity
    00:00 +17°C° 0 mm 3 mps 749 mmHg 91%
    01:00 +16°C° 0 mm 3 mps 748 mmHg 92%
    02:00 +16°C° 0 mm 3 mps 748 mmHg 93%
    03:00 +16°C° 0 mm 3 mps 748 mmHg 94%
    04:00 +16°C° 0 mm 3 mps 748 mmHg 93%
    05:00 +16°C° 0 mm 3 mps 748 mmHg 92%
    06:00 +16°C° 0 mm 3 mps 748 mmHg 91%
    07:00 +18°C° 0 mm 3 mps 748 mmHg 85%
    08:00 +20°C° 0 mm 3 mps 748 mmHg 79%
    09:00 +22°C° 0 mm 3 mps 748 mmHg 73%
    10:00 +23°C° 0 mm 4 mps 748 mmHg 68%
    11:00 +23°C° 0 mm 4 mps 748 mmHg 63%
    12:00 +25°C° 0 mm 4 mps 748 mmHg 58%
    13:00 +26°C° 0 mm 4 mps 748 mmHg 56%
    14:00 +26°C° 0 mm 4 mps 748 mmHg 55%
    15:00 +26°C° 0 mm 5 mps 748 mmHg 53%
    16:00 +26°C° 0 mm 4 mps 748 mmHg 57%
    17:00 +25°C° 0 mm 4 mps 748 mmHg 60%
    18:00 +25°C° 0 mm 3 mps 747 mmHg 63%
    19:00 +22°C° 0 mm 3 mps 747 mmHg 70%
    20:00 +20°C° 0 mm 3 mps 748 mmHg 76%
    21:00 +19°C° 0 mm 2 mps 748 mmHg 82%
    22:00 +18°C° 0 mm 2 mps 747 mmHg 83%
    23:00 +17°C° 0 mm 2 mps 747 mmHg 85%

    23 July, Tuesday

    Time Temperature Precipitation Wind Pressure Humidity
    00:00 +17°C° 0 mm 2 mps 747 mmHg 87%
    01:00 +16°C° 0 mm 2 mps 747 mmHg 88%
    02:00 +16°C° 0 mm 2 mps 747 mmHg 89%
    03:00 +15°C° 0 mm 2 mps 747 mmHg 90%
    04:00 +16°C° 0 mm 2 mps 747 mmHg 89%
    05:00 +16°C° 0 mm 3 mps 746 mmHg 88%
    06:00 +17°C° 0 mm 3 mps 746 mmHg 86%
    07:00 +18°C° 0 mm 3 mps 746 mmHg 79%
    08:00 +20°C° 0 mm 3 mps 746 mmHg 73%
    09:00 +21°C° 0 mm 4 mps 746 mmHg 66%
    10:00 +22°C° 0 mm 4 mps 746 mmHg 61%
    11:00 +23°C° 0 mm 4 mps 746 mmHg 56%
    12:00 +25°C° 0 mm 4 mps 746 mmHg 51%
    13:00 +25°C° 0 mm 4 mps 746 mmHg 50%
    14:00 +25°C° 0 mm 5 mps 746 mmHg 49%
    15:00 +26°C° 0 mm 5 mps 746 mmHg 49%
    16:00 +25°C° 0 mm 5 mps 746 mmHg 53%
    17:00 +23°C° 0 mm 5 mps 746 mmHg 56%
    18:00 +22°C° 0 mm 5 mps 746 mmHg 60%
    19:00 +20°C° 0 mm 4 mps 746 mmHg 65%
    20:00 +18°C° 0 mm 3 mps 746 mmHg 69%
    21:00 +16°C° 0 mm 2 mps 746 mmHg 74%
    22:00 +15°C° 0 mm 2 mps 746 mmHg 76%
    23:00 +15°C° 0 mm 2 mps 745 mmHg 78%
    Show more